Orbital Elements at Epoch 2459200.5 (2020-Dec-17.0) TDB
Reference: JPL 21 (heliocentric ecliptic J2000)
Element | Value | Uncertainty (1-sigma) | Units |
e | .2252604905121557 | 2.5984e-08 | |
a | 2.664420705660975 | 9.4599e-09 | au |
q | 2.06423199057304 | 6.8076e-08 | au |
i | 3.102391481002962 | 3.8872e-06 | deg |
node | 214.0878373519293 | 6.8749e-05 | deg |
peri | 127.5251665243759 | 6.9535e-05 | deg |
M | 58.73728102922218 | 1.0028e-05 | deg |
tp | 2458941.312552308399 (2020-Apr-01.81255231) | 4.3752e-05 | TDB |
period | 1588.556356950795 4.35 | 8.4601e-06 2.316e-08 | d yr |
n | .2266208551083535 | 1.2069e-09 | deg/d |
Q | 3.26460942074891 | 1.1591e-08 | au |
|
| | Orbit Determination Parameters
Additional Information
|